Time,TemperatureF,DewpointF,PressureIn,WindDirection,WindDirectionDegrees,WindSpeedMPH,WindSpeedGustMPH,Humidity,HourlyPrecipIn,Conditions,Clouds,dailyrainin,SoftwareType,DateUTC
2013-01-05 00:01:00,24.5,22.5,30.43,SE,142,0.0,0.0,92,0.00,CLR,FEW,0.00,WeatherDisplay:10.37,2013-01-05 06:01:00,
2013-01-05 00:06:00,24.5,22.5,30.42,SE,142,0.0,0.0,92,0.00,CLR,FEW,0.00,WeatherDisplay:10.37,2013-01-05 06:06:00,
2013-01-05 00:11:00,24.6,22.6,30.43,SE,142,0.0,0.0,92,0.00,CLR,FEW,0.00,WeatherDisplay:10.37,2013-01-05 06:11:00,
2013-01-05 00:16:00,24.6,22.6,30.43,SE,142,0.0,0.0,92,0.00,CLR,FEW,0.00,WeatherDisplay:10.37,2013-01-05 06:16:00,
2013-01-05 00:21:00,24.7,22.7,30.42,SE,142,0.0,0.0,92,0.00,CLR,FEW,0.00,WeatherDisplay:10.37,2013-01-05 06:21:00,
2013-01-05 00:26:00,24.7,22.7,30.42,SE,142,0.0,0.0,92,0.00,CLR,FEW,0.00,WeatherDisplay:10.37,2013-01-05 06:26:00,
2013-01-05 00:31:00,24.7,22.7,30.42,SE,142,0.0,0.0,92,0.00,CLR,FEW,0.00,WeatherDisplay:10.37,2013-01-05 06:31:00,
2013-01-05 00:36:00,24.6,22.6,30.42,SE,142,0.0,0.0,92,0.00,CLR,FEW,0.00,WeatherDisplay:10.37,2013-01-05 06:36:00,
2013-01-05 00:41:00,24.6,22.6,30.42,SE,142,0.0,0.0,92,0.00,CLR,FEW,0.00,WeatherDisplay:10.37,2013-01-05 06:41:00,
2013-01-05 00:46:00,24.5,22.5,30.42,SE,142,0.0,0.0,92,0.00,CLR,FEW,0.00,WeatherDisplay:10.37,2013-01-05 06:46:00,
2013-01-05 00:51:00,24.4,22.4,30.42,SE,142,0.0,0.0,92,0.00,CLR,FEW,0.00,WeatherDisplay:10.37,2013-01-05 06:51:00,
2013-01-05 00:56:00,24.3,22.3,30.42,SE,142,0.0,0.0,92,0.00,CLR,FEW,0.00,WeatherDisplay:10.37,2013-01-05 06:56:00,
2013-01-05 01:01:00,24.3,22.3,30.42,SE,142,2.3,0.0,92,0.00,CLR,FEW,0.00,WeatherDisplay:10.37,2013-01-05 07:01:00,
2013-01-05 01:06:00,24.3,22.3,30.42,SE,142,0.0,0.0,92,0.00,CLR,FEW,0.00,WeatherDisplay:10.37,2013-01-05 07:06:00,
2013-01-05 01:11:00,24.3,22.3,30.42,SE,142,0.0,0.0,92,0.00,CLR,FEW,0.00,WeatherDisplay:10.37,2013-01-05 07:11:00,
2013-01-05 01:16:00,24.2,22.2,30.42,SE,142,0.0,0.0,92,0.00,CLR,FEW,0.00,WeatherDisplay:10.37,2013-01-05 07:16:00,
2013-01-05 01:21:00,24.1,22.1,30.42,SE,142,0.0,0.0,92,0.00,CLR,FEW,0.00,WeatherDisplay:10.37,2013-01-05 07:21:00,
2013-01-05 01:26:00,24.1,22.1,30.42,SE,142,0.0,0.0,92,0.00,CLR,FEW,0.00,WeatherDisplay:10.37,2013-01-05 07:26:00,
2013-01-05 01:31:00,24.0,22.0,30.42,SE,142,0.0,0.0,92,0.00,CLR,FEW,0.00,WeatherDisplay:10.37,2013-01-05 07:31:00,
2013-01-05 01:36:00,24.0,22.0,30.42,SE,142,0.0,0.0,92,0.00,CLR,FEW,0.00,WeatherDisplay:10.37,2013-01-05 07:36:00,
2013-01-05 01:41:00,23.9,21.9,30.42,SE,142,0.0,0.0,92,0.00,CLR,FEW,0.00,WeatherDisplay:10.37,2013-01-05 07:41:00,
2013-01-05 01:46:00,23.9,21.9,30.42,SE,142,0.0,0.1,92,0.00,CLR,FEW,0.00,WeatherDisplay:10.37,2013-01-05 07:46:00,
2013-01-05 01:51:00,23.9,22.2,30.42,SE,142,0.0,0.0,93,0.00,CLR,FEW,0.00,WeatherDisplay:10.37,2013-01-05 07:51:00,
2013-01-05 01:56:00,23.8,22.1,30.42,SE,142,0.0,0.0,93,0.00,CLR,FEW,0.00,WeatherDisplay:10.37,2013-01-05 07:56:00,
2013-01-05 02:01:00,23.8,22.1,30.42,SE,142,0.0,0.0,93,0.00,CLR,FEW,0.00,WeatherDisplay:10.37,2013-01-05 08:01:00,
2013-01-05 02:06:00,23.8,22.1,30.43,SE,142,0.0,0.0,93,0.00,CLR,FEW,0.00,WeatherDisplay:10.37,2013-01-05 08:06:00,
2013-01-05 02:11:00,23.8,22.1,30.43,SE,142,0.0,0.0,93,0.00,CLR,FEW,0.00,WeatherDisplay:10.37,2013-01-05 08:11:00,
2013-01-05 02:16:00,23.7,22.0,30.43,SE,142,0.0,0.0,93,0.00,CLR,FEW,0.00,WeatherDisplay:10.37,2013-01-05 08:16:00,
2013-01-05 02:21:00,23.7,22.0,30.43,SE,142,0.0,0.0,93,0.00,CLR,FEW,0.00,WeatherDisplay:10.37,2013-01-05 08:21:00,
2013-01-05 02:26:00,23.6,21.6,30.43,SE,142,0.0,0.0,92,0.00,CLR,FEW,0.00,WeatherDisplay:10.37,2013-01-05 08:26:00,
2013-01-05 02:31:00,23.5,21.5,30.43,SE,142,0.0,0.0,92,0.00,CLR,FEW,0.00,WeatherDisplay:10.37,2013-01-05 08:31:00,
2013-01-05 02:36:00,23.3,21.3,30.43,SE,142,1.1,0.0,92,0.00,CLR,FEW,0.00,WeatherDisplay:10.37,2013-01-05 08:36:00,
2013-01-05 02:41:00,23.2,21.2,30.43,SE,142,0.0,0.0,92,0.00,CLR,FEW,0.00,WeatherDisplay:10.37,2013-01-05 08:41:00,
2013-01-05 02:46:00,23.0,21.0,30.43,SE,142,0.0,0.0,92,0.00,CLR,FEW,0.00,WeatherDisplay:10.37,2013-01-05 08:46:00,
2013-01-05 02:52:00,22.8,20.8,30.43,SE,142,0.0,0.0,92,0.00,CLR,FEW,0.00,WeatherDisplay:10.37,2013-01-05 08:52:00,
2013-01-05 02:57:00,22.7,20.7,30.43,SE,142,1.1,0.0,92,0.00,CLR,FEW,0.00,WeatherDisplay:10.37,2013-01-05 08:57:00,
2013-01-05 03:02:00,22.6,20.9,30.43,SE,142,0.0,0.0,93,0.00,CLR,FEW,0.00,WeatherDisplay:10.37,2013-01-05 09:02:00,
2013-01-05 03:07:00,22.5,20.8,30.42,SE,142,0.0,0.0,93,0.00,CLR,FEW,0.00,WeatherDisplay:10.37,2013-01-05 09:07:00,
2013-01-05 03:12:00,22.6,20.9,30.42,SE,142,0.0,0.2,93,0.00,CLR,FEW,0.00,WeatherDisplay:10.37,2013-01-05 09:12:00,
2013-01-05 03:17:00,22.7,21.0,30.42,SE,142,0.0,0.0,93,0.00,CLR,FEW,0.00,WeatherDisplay:10.37,2013-01-05 09:17:00,
2013-01-05 03:22:00,22.8,21.1,30.43,SE,142,0.0,0.0,93,0.00,CLR,FEW,0.00,WeatherDisplay:10.37,2013-01-05 09:22:00,
2013-01-05 03:27:00,22.9,21.2,30.42,SE,142,0.0,0.0,93,0.00,CLR,FEW,0.00,WeatherDisplay:10.37,2013-01-05 09:27:00,
2013-01-05 03:32:00,22.9,21.2,30.42,SE,142,0.0,0.0,93,0.00,CLR,FEW,0.00,WeatherDisplay:10.37,2013-01-05 09:32:00,
2013-01-05 03:37:00,22.9,21.2,30.42,SE,142,1.1,0.0,93,0.00,CLR,FEW,0.00,WeatherDisplay:10.37,2013-01-05 09:37:00,
2013-01-05 03:42:00,22.9,21.2,30.42,SE,142,0.0,0.0,93,0.00,CLR,FEW,0.00,WeatherDisplay:10.37,2013-01-05 09:42:00,
2013-01-05 03:47:00,22.9,21.2,30.42,SE,142,1.1,1.1,93,0.00,CLR,FEW,0.00,WeatherDisplay:10.37,2013-01-05 09:47:00,
2013-01-05 03:52:00,23.0,21.3,30.42,SE,142,0.0,0.0,93,0.00,CLR,FEW,0.00,WeatherDisplay:10.37,2013-01-05 09:52:00,
2013-01-05 03:57:00,23.0,21.3,30.42,SE,142,0.0,0.0,93,0.00,CLR,FEW,0.00,WeatherDisplay:10.37,2013-01-05 09:57:00,
2013-01-05 04:02:00,23.0,21.3,30.42,SE,142,0.0,0.0,93,0.00,CLR,FEW,0.00,WeatherDisplay:10.37,2013-01-05 10:02:00,
2013-01-05 04:07:00,22.9,21.2,30.42,SE,142,0.0,0.0,93,0.00,CLR,FEW,0.00,WeatherDisplay:10.37,2013-01-05 10:07:00,
2013-01-05 04:12:00,23.0,21.3,30.43,SE,142,0.0,0.0,93,0.00,CLR,FEW,0.00,WeatherDisplay:10.37,2013-01-05 10:12:00,
2013-01-05 04:17:00,22.9,21.2,30.43,SE,142,0.0,0.0,93,0.00,CLR,FEW,0.00,WeatherDisplay:10.37,2013-01-05 10:17:00,
2013-01-05 04:22:00,22.7,20.7,30.42,SE,142,1.1,1.1,92,0.00,CLR,FEW,0.00,WeatherDisplay:10.37,2013-01-05 10:22:00,
2013-01-05 04:27:00,22.6,20.9,30.42,SE,142,0.0,0.0,93,0.00,CLR,FEW,0.00,WeatherDisplay:10.37,2013-01-05 10:27:00,
2013-01-05 04:32:00,22.4,20.7,30.42,SE,142,0.0,0.0,93,0.00,CLR,FEW,0.00,WeatherDisplay:10.37,2013-01-05 10:32:00,
2013-01-05 04:37:00,22.4,20.7,30.42,SE,142,0.0,0.0,93,0.00,CLR,FEW,0.00,WeatherDisplay:10.37,2013-01-05 10:37:00,
2013-01-05 04:42:00,22.4,20.7,30.42,SE,142,0.0,0.0,93,0.00,CLR,FEW,0.00,WeatherDisplay:10.37,2013-01-05 10:42:00,
2013-01-05 04:47:00,22.5,20.8,30.42,SE,142,0.0,0.0,93,0.00,CLR,FEW,0.00,WeatherDisplay:10.37,2013-01-05 10:47:00,
2013-01-05 04:52:00,22.5,20.8,30.42,SE,142,0.0,0.0,93,0.00,CLR,FEW,0.00,WeatherDisplay:10.37,2013-01-05 10:52:00,
2013-01-05 04:57:00,22.5,20.8,30.42,SE,142,0.0,0.0,93,0.00,CLR,FEW,0.00,WeatherDisplay:10.37,2013-01-05 10:57:00,
2013-01-05 05:02:00,22.5,20.8,30.41,SE,142,0.0,0.0,93,0.00,CLR,FEW,0.00,WeatherDisplay:10.37,2013-01-05 11:02:00,
2013-01-05 05:07:00,22.6,20.9,30.42,SE,142,0.0,0.0,93,0.00,CLR,FEW,0.00,WeatherDisplay:10.37,2013-01-05 11:07:00,
2013-01-05 05:12:00,22.5,20.8,30.42,SE,142,0.0,0.0,93,0.00,CLR,FEW,0.00,WeatherDisplay:10.37,2013-01-05 11:12:00,
2013-01-05 05:17:00,22.6,20.9,30.42,SE,142,0.0,0.0,93,0.00,CLR,FEW,0.00,WeatherDisplay:10.37,2013-01-05 11:17:00,
2013-01-05 05:22:00,22.5,20.8,30.42,SE,142,0.0,0.0,93,0.00,CLR,FEW,0.00,WeatherDisplay:10.37,2013-01-05 11:22:00,
2013-01-05 05:27:00,22.5,20.8,30.42,SE,142,0.0,0.0,93,0.00,CLR,FEW,0.00,WeatherDisplay:10.37,2013-01-05 11:27:00,
2013-01-05 05:32:00,22.6,20.9,30.42,SE,142,0.0,0.0,93,0.00,CLR,FEW,0.00,WeatherDisplay:10.37,2013-01-05 11:32:00,
2013-01-05 05:37:00,22.7,21.0,30.42,SE,142,0.0,0.0,93,0.00,CLR,FEW,0.00,WeatherDisplay:10.37,2013-01-05 11:37:00,
2013-01-05 05:42:00,22.8,21.1,30.42,SE,142,0.0,0.0,93,0.00,CLR,FEW,0.00,WeatherDisplay:10.37,2013-01-05 11:42:00,
2013-01-05 05:47:00,22.8,21.1,30.42,SE,142,0.0,0.0,93,0.00,CLR,FEW,0.00,WeatherDisplay:10.37,2013-01-05 11:47:00,
2013-01-05 05:52:00,22.7,21.0,30.42,SE,142,0.0,0.0,93,0.00,CLR,FEW,0.00,WeatherDisplay:10.37,2013-01-05 11:52:00,
2013-01-05 05:57:00,22.7,21.0,30.42,SE,142,0.0,0.0,93,0.00,CLR,FEW,0.00,WeatherDisplay:10.37,2013-01-05 11:57:00,
2013-01-05 06:02:00,22.7,21.0,30.42,SE,142,0.0,0.0,93,0.00,CLR,FEW,0.00,WeatherDisplay:10.37,2013-01-05 12:02:00,
2013-01-05 06:07:00,22.9,21.2,30.42,SE,142,0.0,0.0,93,0.00,CLR,FEW,0.00,WeatherDisplay:10.37,2013-01-05 12:07:00,
2013-01-05 06:12:00,22.8,21.1,30.43,SE,142,0.0,0.0,93,0.00,CLR,FEW,0.00,WeatherDisplay:10.37,2013-01-05 12:12:00,
2013-01-05 06:17:00,22.9,21.2,30.43,SE,142,0.0,0.0,93,0.00,CLR,FEW,0.00,WeatherDisplay:10.37,2013-01-05 12:17:00,
2013-01-05 06:22:00,22.9,21.2,30.43,SE,142,1.1,1.1,93,0.00,CLR,FEW,0.00,WeatherDisplay:10.37,2013-01-05 12:22:00,
2013-01-05 06:27:00,22.8,21.1,30.43,SE,142,0.0,0.0,93,0.00,CLR,FEW,0.00,WeatherDisplay:10.37,2013-01-05 12:27:00,
2013-01-05 06:32:00,22.8,21.1,30.43,SE,142,0.0,0.0,93,0.00,CLR,FEW,0.00,WeatherDisplay:10.37,2013-01-05 12:32:00,
2013-01-05 06:37:00,22.8,21.1,30.42,SE,142,0.0,0.0,93,0.00,CLR,FEW,0.00,WeatherDisplay:10.37,2013-01-05 12:37:00,
2013-01-05 06:42:00,23.0,21.3,30.42,SE,142,0.0,0.0,93,0.00,CLR,FEW,0.00,WeatherDisplay:10.37,2013-01-05 12:42:00,
2013-01-05 06:47:00,23.1,21.4,30.42,SE,142,0.0,0.0,93,0.00,CLR,FEW,0.00,WeatherDisplay:10.37,2013-01-05 12:47:00,
2013-01-05 06:52:00,23.3,21.6,30.43,SE,142,0.0,0.0,93,0.00,CLR,FEW,0.00,WeatherDisplay:10.37,2013-01-05 12:52:00,
2013-01-05 06:57:00,23.4,21.7,30.43,SE,142,0.0,0.0,93,0.00,CLR,FEW,0.00,WeatherDisplay:10.37,2013-01-05 12:57:00,
2013-01-05 07:02:00,23.6,21.9,30.44,SE,142,0.0,0.0,93,0.00,FEW,,0.00,WeatherDisplay:10.37,2013-01-05 13:02:00,
2013-01-05 07:07:00,23.7,22.0,30.43,SE,142,0.0,0.0,93,0.00,FEW,,0.00,WeatherDisplay:10.37,2013-01-05 13:07:00,
2013-01-05 07:12:00,23.8,22.1,30.43,SE,142,0.0,0.0,93,0.00,FEW,,0.00,WeatherDisplay:10.37,2013-01-05 13:12:00,
2013-01-05 07:17:00,23.7,22.0,30.43,SE,142,0.0,0.0,93,0.00,FEW,,0.00,WeatherDisplay:10.37,2013-01-05 13:17:00,
2013-01-05 07:22:00,23.7,22.0,30.43,SE,142,0.0,0.0,93,0.00,FEW,,0.00,WeatherDisplay:10.37,2013-01-05 13:22:00,
2013-01-05 07:27:00,23.6,21.9,30.42,SE,142,0.0,0.0,93,0.00,FEW,,0.00,WeatherDisplay:10.37,2013-01-05 13:27:00,
2013-01-05 07:32:00,23.7,22.0,30.42,SE,142,1.1,1.1,93,0.00,FEW,,0.00,WeatherDisplay:10.37,2013-01-05 13:32:00,
2013-01-05 07:37:00,24.0,22.5,30.42,SE,142,0.0,0.0,94,0.00,FEW,,0.00,WeatherDisplay:10.37,2013-01-05 13:37:00,
2013-01-05 07:42:00,24.2,22.7,30.42,SE,142,0.0,0.0,94,0.00,FEW,,0.00,WeatherDisplay:10.37,2013-01-05 13:42:00,
2013-01-05 07:47:00,24.6,23.1,30.42,SE,142,0.0,0.0,94,0.00,FEW,,0.00,WeatherDisplay:10.37,2013-01-05 13:47:00,
2013-01-05 07:52:00,25.0,23.5,30.42,SE,142,0.0,0.0,94,0.00,FEW,,0.00,WeatherDisplay:10.37,2013-01-05 13:52:00,
2013-01-05 07:57:00,25.4,23.9,30.42,SE,142,0.0,0.0,94,0.00,FEW,,0.00,WeatherDisplay:10.37,2013-01-05 13:57:00,
2013-01-05 08:02:00,25.8,24.3,30.42,SE,142,1.1,0.0,94,0.00,BKN,FEW,0.00,WeatherDisplay:10.37,2013-01-05 14:02:00,
2013-01-05 08:07:00,26.1,24.6,30.42,SE,142,0.0,0.0,94,0.00,BKN,FEW,0.00,WeatherDisplay:10.37,2013-01-05 14:07:00,
2013-01-05 08:12:00,26.4,24.9,30.42,SE,142,0.0,0.0,94,0.00,BKN,FEW,0.00,WeatherDisplay:10.37,2013-01-05 14:12:00,
2013-01-05 08:17:00,26.7,24.9,30.43,SE,142,0.0,0.0,93,0.00,BKN,FEW,0.00,WeatherDisplay:10.37,2013-01-05 14:17:00,
2013-01-05 08:22:00,27.0,25.2,30.43,SE,142,0.0,0.0,93,0.00,BKN,FEW,0.00,WeatherDisplay:10.37,2013-01-05 14:22:00,
2013-01-05 08:27:00,27.4,25.6,30.44,SE,142,0.0,0.0,93,0.00,BKN,FEW,0.00,WeatherDisplay:10.37,2013-01-05 14:27:00,
2013-01-05 08:32:00,28.0,26.2,30.44,SE,142,0.0,0.0,93,0.00,BKN,FEW,0.00,WeatherDisplay:10.37,2013-01-05 14:32:00,
2013-01-05 08:38:00,28.3,26.3,30.43,SE,142,2.3,2.3,92,0.00,BKN,FEW,0.00,WeatherDisplay:10.37,2013-01-05 14:38:00,
2013-01-05 08:43:00,28.5,26.2,30.44,SE,142,0.0,0.0,91,0.00,BKN,FEW,0.00,WeatherDisplay:10.37,2013-01-05 14:43:00,
2013-01-05 08:48:00,28.8,26.5,30.44,SE,142,1.1,1.1,91,0.00,BKN,FEW,0.00,WeatherDisplay:10.37,2013-01-05 14:48:00,
2013-01-05 08:53:00,29.3,27.0,30.44,SE,142,0.0,0.0,91,0.00,BKN,FEW,0.00,WeatherDisplay:10.37,2013-01-05 14:53:00,
2013-01-05 08:58:00,29.7,27.4,30.44,SE,142,0.0,0.0,91,0.00,BKN,FEW,0.00,WeatherDisplay:10.37,2013-01-05 14:58:00,
2013-01-05 09:03:00,30.2,27.6,30.44,SE,142,2.3,2.3,90,0.00,FEW,,0.00,WeatherDisplay:10.37,2013-01-05 15:03:00,
2013-01-05 09:08:00,30.5,27.6,30.44,SE,138,2.3,2.3,89,0.00,FEW,,0.00,WeatherDisplay:10.37,2013-01-05 15:08:00,
2013-01-05 09:13:00,30.8,28.2,30.43,NE,36,2.3,2.3,90,0.00,FEW,,0.00,WeatherDisplay:10.37,2013-01-05 15:13:00,
2013-01-05 09:18:00,31.3,28.4,30.43,NE,55,2.3,2.3,89,0.00,FEW,,0.00,WeatherDisplay:10.37,2013-01-05 15:18:00,
2013-01-05 09:23:00,31.8,29.2,30.43,NE,55,2.3,2.3,90,0.00,FEW,,0.00,WeatherDisplay:10.37,2013-01-05 15:23:00,
2013-01-05 09:28:00,32.0,29.1,30.43,NE,55,0.0,0.0,89,0.00,FEW,,0.00,WeatherDisplay:10.37,2013-01-05 15:28:00,
2013-01-05 09:33:00,32.5,30.2,30.43,NE,55,0.0,0.0,91,0.00,FEW,,0.00,WeatherDisplay:10.37,2013-01-05 15:33:00,
2013-01-05 09:38:00,33.6,31.0,30.43,NE,55,2.3,2.3,90,0.00,FEW,,0.00,WeatherDisplay:10.37,2013-01-05 15:38:00,
2013-01-05 09:43:00,34.5,31.3,30.43,NE,55,2.3,2.3,88,0.00,FEW,,0.00,WeatherDisplay:10.37,2013-01-05 15:43:00,
2013-01-05 09:48:00,35.5,32.0,30.42,NE,55,4.6,4.6,87,0.00,FEW,,0.00,WeatherDisplay:10.37,2013-01-05 15:48:00,
2013-01-05 09:53:00,35.9,31.8,30.41,NE,55,3.5,3.5,85,0.00,FEW,,0.00,WeatherDisplay:10.37,2013-01-05 15:53:00,
2013-01-05 09:58:00,36.1,32.3,30.42,NE,54,3.5,3.5,86,0.00,FEW,,0.00,WeatherDisplay:10.37,2013-01-05 15:58:00,
2013-01-05 10:03:00,36.6,32.5,30.42,NE,54,3.5,3.5,85,0.00,FEW,,0.00,WeatherDisplay:10.37,2013-01-05 16:03:00,
2013-01-05 10:08:00,37.8,33.4,30.41,NE,39,3.5,3.5,84,0.00,FEW,,0.00,WeatherDisplay:10.37,2013-01-05 16:08:00,
2013-01-05 10:13:00,38.9,33.6,30.41,ENE,78,3.5,3.5,81,0.00,FEW,,0.00,WeatherDisplay:10.37,2013-01-05 16:13:00,
2013-01-05 10:18:00,39.4,34.1,30.41,ENE,59,1.1,1.1,81,0.00,FEW,,0.00,WeatherDisplay:10.37,2013-01-05 16:18:00,
2013-01-05 10:23:00,40.1,33.8,30.40,ENE,73,3.5,3.5,78,0.00,CLR,FEW,0.00,WeatherDisplay:10.37,2013-01-05 16:23:00,
2013-01-05 10:28:00,41.0,33.7,30.40,NE,49,1.1,1.1,75,0.00,CLR,FEW,0.00,WeatherDisplay:10.37,2013-01-05 16:28:00,
2013-01-05 10:33:00,41.7,34.4,30.40,NNW,346,3.5,3.5,75,0.00,CLR,FEW,0.00,WeatherDisplay:10.37,2013-01-05 16:33:00,
2013-01-05 10:38:00,42.0,33.3,30.40,WNW,282,0.0,0.1,71,0.00,CLR,FEW,0.00,WeatherDisplay:10.37,2013-01-05 16:38:00,
2013-01-05 10:43:00,42.7,32.5,30.40,South,183,4.6,4.6,67,0.00,CLR,FEW,0.00,WeatherDisplay:10.37,2013-01-05 16:43:00,
2013-01-05 10:48:00,43.2,31.8,30.40,West,279,3.5,3.5,64,0.00,CLR,FEW,0.00,WeatherDisplay:10.37,2013-01-05 16:48:00,
2013-01-05 10:53:00,43.6,31.4,30.40,SW,234,4.3,4.3,62,0.00,CLR,FEW,0.00,WeatherDisplay:10.37,2013-01-05 16:53:00,
2013-01-05 10:58:00,43.7,30.7,30.39,SSW,205,3.5,3.5,60,0.00,CLR,FEW,0.00,WeatherDisplay:10.37,2013-01-05 16:58:00,
2013-01-05 11:03:00,43.8,30.8,30.39,SW,223,6.9,6.9,60,0.00,CLR,FEW,0.00,WeatherDisplay:10.37,2013-01-05 17:03:00,
2013-01-05 11:08:00,44.0,31.0,30.38,SSW,211,3.5,3.5,60,0.00,CLR,FEW,0.00,WeatherDisplay:10.37,2013-01-05 17:08:00,
2013-01-05 11:13:00,44.3,30.4,30.38,South,173,2.3,2.3,58,0.00,CLR,FEW,0.00,WeatherDisplay:10.37,2013-01-05 17:13:00,
2013-01-05 11:18:00,44.5,30.6,30.38,West,266,5.8,5.8,58,0.00,CLR,FEW,0.00,WeatherDisplay:10.37,2013-01-05 17:18:00,
2013-01-05 11:23:00,44.8,30.0,30.38,West,269,10.4,10.4,56,0.00,SCT,FEW,0.00,WeatherDisplay:10.37,2013-01-05 17:23:00,
2013-01-05 11:28:00,45.2,29.5,30.37,SSW,207,8.1,8.1,54,0.00,SCT,FEW,0.00,WeatherDisplay:10.37,2013-01-05 17:28:00,
2013-01-05 11:33:00,45.3,30.1,30.37,South,187,8.1,8.1,55,0.00,SCT,FEW,0.00,WeatherDisplay:10.37,2013-01-05 17:33:00,
2013-01-05 11:38:00,45.5,29.8,30.36,West,268,9.2,9.2,54,0.00,SCT,FEW,0.00,WeatherDisplay:10.37,2013-01-05 17:38:00,
2013-01-05 11:43:00,45.7,30.4,30.36,WSW,258,5.8,5.8,55,0.00,SCT,FEW,0.00,WeatherDisplay:10.37,2013-01-05 17:43:00,
2013-01-05 11:48:00,46.3,31.0,30.35,WSW,242,5.8,5.8,55,0.00,SCT,FEW,0.00,WeatherDisplay:10.37,2013-01-05 17:48:00,
2013-01-05 11:53:00,46.9,30.6,30.35,SSE,162,3.2,3.2,53,0.00,SCT,FEW,0.00,WeatherDisplay:10.37,2013-01-05 17:53:00,
2013-01-05 11:58:00,47.3,31.0,30.35,WSW,252,3.5,3.5,53,0.00,SCT,FEW,0.00,WeatherDisplay:10.37,2013-01-05 17:58:00,
2013-01-05 12:03:00,47.5,30.3,30.35,SW,219,6.9,6.9,51,0.00,CLR,FEW,0.00,WeatherDisplay:10.37,2013-01-05 18:03:00,
2013-01-05 12:08:00,47.5,30.7,30.34,WNW,286,4.6,4.6,52,0.00,CLR,FEW,0.00,WeatherDisplay:10.37,2013-01-05 18:08:00,
2013-01-05 12:13:00,47.4,30.2,30.34,NW,306,8.1,8.1,51,0.00,CLR,FEW,0.00,WeatherDisplay:10.37,2013-01-05 18:13:00,
2013-01-05 12:18:00,46.6,29.9,30.34,South,187,8.1,8.1,52,0.00,CLR,FEW,0.00,WeatherDisplay:10.37,2013-01-05 18:18:00,
2013-01-05 12:23:00,46.2,30.0,30.33,South,184,8.1,8.1,53,0.00,CLR,FEW,0.00,WeatherDisplay:10.37,2013-01-05 18:23:00,
2013-01-05 12:28:00,45.9,30.2,30.33,South,171,6.4,6.4,54,0.00,CLR,FEW,0.00,WeatherDisplay:10.37,2013-01-05 18:28:00,
2013-01-05 12:33:00,45.8,30.1,30.33,WNW,288,4.6,4.6,54,0.00,CLR,FEW,0.00,WeatherDisplay:10.37,2013-01-05 18:33:00,
2013-01-05 12:38:00,45.8,30.1,30.33,SSW,209,8.1,8.1,54,0.00,CLR,FEW,0.00,WeatherDisplay:10.37,2013-01-05 18:38:00,
2013-01-05 12:43:00,45.8,30.5,30.33,WSW,240,1.1,1.1,55,0.00,CLR,FEW,0.00,WeatherDisplay:10.37,2013-01-05 18:43:00,
2013-01-05 12:48:00,46.3,31.4,30.33,SW,219,9.6,9.6,56,0.00,CLR,FEW,0.00,WeatherDisplay:10.37,2013-01-05 18:48:00,
2013-01-05 12:53:00,46.1,29.9,30.32,South,191,5.8,5.8,53,0.00,CLR,FEW,0.00,WeatherDisplay:10.37,2013-01-05 18:53:00,
2013-01-05 12:58:00,46.0,30.3,30.32,WSW,246,5.8,5.8,54,0.00,CLR,FEW,0.00,WeatherDisplay:10.37,2013-01-05 18:58:00,
2013-01-05 13:03:00,46.1,31.3,30.32,WSW,257,5.8,5.8,56,0.00,CLR,FEW,0.00,WeatherDisplay:10.37,2013-01-05 19:03:00,
2013-01-05 13:08:00,46.1,31.3,30.31,WNW,284,4.6,4.6,56,0.00,CLR,FEW,0.00,WeatherDisplay:10.37,2013-01-05 19:08:00,
2013-01-05 13:13:00,46.2,31.8,30.31,West,275,5.8,5.8,57,0.00,CLR,FEW,0.00,WeatherDisplay:10.37,2013-01-05 19:13:00,
2013-01-05 13:18:00,46.3,31.4,30.31,West,272,5.8,5.8,56,0.00,CLR,FEW,0.00,WeatherDisplay:10.37,2013-01-05 19:18:00,
2013-01-05 13:23:00,46.3,31.9,30.30,WSW,244,9.6,9.6,57,0.00,BKN,FEW,0.00,WeatherDisplay:10.37,2013-01-05 19:23:00,
2013-01-05 13:28:00,46.2,30.5,30.30,WSW,250,6.9,6.9,54,0.00,BKN,FEW,0.00,WeatherDisplay:10.37,2013-01-05 19:28:00,
2013-01-05 13:33:00,46.0,30.7,30.30,West,271,5.8,5.8,55,0.00,BKN,FEW,0.00,WeatherDisplay:10.37,2013-01-05 19:33:00,
2013-01-05 13:38:00,46.1,31.3,30.30,WNW,303,3.5,3.5,56,0.00,BKN,FEW,0.00,WeatherDisplay:10.37,2013-01-05 19:38:00,
2013-01-05 13:43:00,46.4,31.1,30.30,West,270,2.3,2.3,55,0.00,BKN,FEW,0.00,WeatherDisplay:10.37,2013-01-05 19:43:00,
2013-01-05 13:48:00,46.3,31.4,30.30,WSW,254,6.9,6.9,56,0.00,BKN,FEW,0.00,WeatherDisplay:10.37,2013-01-05 19:48:00,
2013-01-05 13:53:00,46.1,30.4,30.30,SSW,207,8.1,8.1,54,0.00,BKN,FEW,0.00,WeatherDisplay:10.37,2013-01-05 19:53:00,
2013-01-05 13:58:00,46.2,31.4,30.30,WNW,287,3.5,3.5,56,0.00,BKN,FEW,0.00,WeatherDisplay:10.37,2013-01-05 19:58:00,
2013-01-05 14:03:00,46.3,31.0,30.30,WNW,286,1.1,1.9,55,0.00,OVC,FEW,0.00,WeatherDisplay:10.37,2013-01-05 20:03:00,
2013-01-05 14:08:00,46.3,30.5,30.30,SW,227,5.8,5.8,54,0.00,OVC,FEW,0.00,WeatherDisplay:10.37,2013-01-05 20:08:00,
2013-01-05 14:13:00,46.2,30.9,30.29,WNW,300,5.8,5.8,55,0.00,OVC,FEW,0.00,WeatherDisplay:10.37,2013-01-05 20:13:00,
2013-01-05 14:18:00,46.2,30.9,30.29,WNW,295,4.6,4.6,55,0.00,OVC,FEW,0.00,WeatherDisplay:10.37,2013-01-05 20:18:00,
2013-01-05 14:23:00,46.2,30.9,30.29,WNW,286,3.5,3.5,55,0.00,OVC,FEW,0.00,WeatherDisplay:10.37,2013-01-05 20:23:00,
2013-01-05 14:29:00,46.3,30.5,30.30,WNW,288,2.3,2.3,54,0.00,OVC,FEW,0.00,WeatherDisplay:10.37,2013-01-05 20:29:00,
2013-01-05 14:34:00,46.3,31.0,30.29,SW,223,3.5,3.5,55,0.00,OVC,FEW,0.00,WeatherDisplay:10.37,2013-01-05 20:34:00,
2013-01-05 14:39:00,46.2,30.5,30.29,SW,221,6.9,6.9,54,0.00,-DZ,FEW,0.00,WeatherDisplay:10.37,2013-01-05 20:39:00,
2013-01-05 14:44:00,46.1,30.4,30.28,South,175,3.5,3.5,54,0.00,-DZ,FEW,0.00,WeatherDisplay:10.37,2013-01-05 20:44:00,
2013-01-05 14:49:00,45.9,30.2,30.29,SW,225,6.9,6.9,54,0.00,-DZ,FEW,0.00,WeatherDisplay:10.37,2013-01-05 20:49:00,
2013-01-05 14:54:00,45.8,30.5,30.29,West,259,3.5,3.5,55,0.00,-DZ,FEW,0.00,WeatherDisplay:10.37,2013-01-05 20:54:00,
2013-01-05 14:59:00,45.8,30.5,30.29,West,266,4.6,4.6,55,0.00,-DZ,FEW,0.00,WeatherDisplay:10.37,2013-01-05 20:59:00,
2013-01-05 15:04:00,45.7,30.4,30.29,WSW,254,3.5,3.5,55,0.00,OVC,FEW,0.00,WeatherDisplay:10.37,2013-01-05 21:04:00,
2013-01-05 15:09:00,45.7,30.4,30.29,SW,229,3.5,3.5,55,0.00,OVC,FEW,0.00,WeatherDisplay:10.37,2013-01-05 21:09:00,
2013-01-05 15:14:00,45.7,30.4,30.29,WNW,291,3.5,3.5,55,0.00,OVC,FEW,0.00,WeatherDisplay:10.37,2013-01-05 21:14:00,
2013-01-05 15:19:00,45.7,31.3,30.28,WNW,298,3.5,3.5,57,0.00,OVC,FEW,0.00,WeatherDisplay:10.37,2013-01-05 21:19:00,
2013-01-05 15:24:00,45.7,30.9,30.29,WSW,252,3.5,3.5,56,0.00,OVC,FEW,0.00,WeatherDisplay:10.37,2013-01-05 21:24:00,
2013-01-05 15:29:00,45.7,30.4,30.28,South,191,1.1,1.1,55,0.00,OVC,FEW,0.00,WeatherDisplay:10.37,2013-01-05 21:29:00,
2013-01-05 15:34:00,45.7,31.3,30.28,SW,222,3.5,3.5,57,0.00,OVC,FEW,0.00,WeatherDisplay:10.37,2013-01-05 21:34:00,
2013-01-05 15:39:00,45.7,30.4,30.28,SSW,207,3.5,3.5,55,0.00,OVC,FEW,0.00,WeatherDisplay:10.37,2013-01-05 21:39:00,
2013-01-05 15:44:00,45.6,29.9,30.29,SSW,204,3.5,3.5,54,0.00,OVC,FEW,0.00,WeatherDisplay:10.37,2013-01-05 21:44:00,
2013-01-05 15:49:00,45.6,29.9,30.28,SW,218,2.3,2.3,54,0.00,OVC,FEW,0.00,WeatherDisplay:10.37,2013-01-05 21:49:00,
2013-01-05 15:54:00,45.6,30.8,30.28,WSW,250,1.1,1.1,56,0.00,OVC,FEW,0.00,WeatherDisplay:10.37,2013-01-05 21:54:00,
2013-01-05 15:59:00,45.5,30.3,30.28,SW,236,2.3,2.3,55,0.00,OVC,FEW,0.00,WeatherDisplay:10.37,2013-01-05 21:59:00,
2013-01-05 16:04:00,45.5,30.7,30.28,SW,228,2.3,2.3,56,0.00,OVC,FEW,0.00,WeatherDisplay:10.37,2013-01-05 22:04:00,
2013-01-05 16:09:00,45.5,30.7,30.28,SW,221,3.5,3.5,56,0.00,OVC,FEW,0.00,WeatherDisplay:10.37,2013-01-05 22:09:00,
2013-01-05 16:14:00,45.5,30.3,30.28,SSW,207,5.8,5.8,55,0.00,OVC,FEW,0.00,WeatherDisplay:10.37,2013-01-05 22:14:00,
2013-01-05 16:19:00,45.5,30.3,30.28,SW,226,2.3,2.3,55,0.00,OVC,FEW,0.00,WeatherDisplay:10.37,2013-01-05 22:19:00,
2013-01-05 16:24:00,45.4,30.2,30.28,SSW,207,4.6,4.6,55,0.00,OVC,FEW,0.00,WeatherDisplay:10.37,2013-01-05 22:24:00,
2013-01-05 16:29:00,45.3,30.1,30.28,South,188,4.6,4.6,55,0.00,OVC,FEW,0.00,WeatherDisplay:10.37,2013-01-05 22:29:00,
2013-01-05 16:34:00,45.2,30.0,30.28,SW,230,8.1,8.1,55,0.00,OVC,FEW,0.00,WeatherDisplay:10.37,2013-01-05 22:34:00,
2013-01-05 16:39:00,45.1,30.3,30.28,SSW,205,0.0,0.0,56,0.00,OVC,FEW,0.00,WeatherDisplay:10.37,2013-01-05 22:39:00,
2013-01-05 16:44:00,45.1,30.3,30.28,SW,219,3.5,3.5,56,0.00,OVC,FEW,0.00,WeatherDisplay:10.37,2013-01-05 22:44:00,
2013-01-05 16:49:00,45.0,30.2,30.28,WSW,247,1.1,2.2,56,0.00,OVC,FEW,0.00,WeatherDisplay:10.37,2013-01-05 22:49:00,
2013-01-05 16:54:00,44.9,30.6,30.28,SW,223,0.0,0.0,57,0.00,OVC,FEW,0.00,WeatherDisplay:10.37,2013-01-05 22:54:00,
2013-01-05 16:59:00,44.8,30.5,30.28,SW,223,0.0,0.0,57,0.00,OVC,FEW,0.00,WeatherDisplay:10.37,2013-01-05 22:59:00,
2013-01-05 17:04:00,44.7,30.4,30.28,SW,223,0.0,0.0,57,0.00,OVC,FEW,0.00,WeatherDisplay:10.37,2013-01-05 23:04:00,
2013-01-05 17:09:00,44.6,30.3,30.28,South,177,2.3,2.3,57,0.00,OVC,FEW,0.00,WeatherDisplay:10.37,2013-01-05 23:09:00,
2013-01-05 17:14:00,44.5,30.2,30.28,SSW,207,4.6,4.6,57,0.00,OVC,FEW,0.00,WeatherDisplay:10.37,2013-01-05 23:14:00,
2013-01-05 17:19:00,44.5,30.2,30.28,SSW,199,4.6,4.6,57,0.00,OVC,FEW,0.00,WeatherDisplay:10.37,2013-01-05 23:19:00,
2013-01-05 17:24:00,44.4,30.5,30.29,SW,229,2.3,2.3,58,0.00,OVC,FEW,0.00,WeatherDisplay:10.37,2013-01-05 23:24:00,
2013-01-05 17:29:00,44.3,30.0,30.29,SW,223,3.5,3.5,57,0.00,OVC,FEW,0.00,WeatherDisplay:10.37,2013-01-05 23:29:00,
2013-01-05 17:34:00,44.2,29.9,30.29,SW,215,5.8,5.8,57,0.00,OVC,FEW,0.00,WeatherDisplay:10.37,2013-01-05 23:34:00,
2013-01-05 17:39:00,44.2,30.3,30.29,SW,224,4.6,4.6,58,0.00,OVC,FEW,0.00,WeatherDisplay:10.37,2013-01-05 23:39:00,
2013-01-05 17:44:00,44.2,30.3,30.29,SSE,165,0.0,0.5,58,0.00,OVC,FEW,0.00,WeatherDisplay:10.37,2013-01-05 23:44:00,
2013-01-05 17:49:00,44.1,30.3,30.28,SW,227,0.0,0.0,58,0.00,OVC,FEW,0.00,WeatherDisplay:10.37,2013-01-05 23:49:00,
2013-01-05 17:54:00,44.1,30.3,30.29,South,169,1.1,1.1,58,0.00,OVC,FEW,0.00,WeatherDisplay:10.37,2013-01-05 23:54:00,
2013-01-05 17:59:00,44.1,29.8,30.29,SSW,202,2.3,2.3,57,0.00,OVC,FEW,0.00,WeatherDisplay:10.37,2013-01-05 23:59:00,
2013-01-05 18:04:00,44.0,30.6,30.29,West,278,3.5,3.5,59,0.00,OVC,FEW,0.00,WeatherDisplay:10.37,2013-01-06 00:04:00,
2013-01-05 18:09:00,44.0,30.2,30.30,SSW,197,3.5,3.5,58,0.00,OVC,FEW,0.00,WeatherDisplay:10.37,2013-01-06 00:09:00,
2013-01-05 18:14:00,43.8,30.0,30.30,SW,227,3.5,3.5,58,0.00,OVC,FEW,0.00,WeatherDisplay:10.37,2013-01-06 00:14:00,
2013-01-05 18:19:00,43.8,30.0,30.30,SSW,192,1.1,1.1,58,0.00,OVC,FEW,0.00,WeatherDisplay:10.37,2013-01-06 00:19:00,
2013-01-05 18:24:00,43.7,30.3,30.30,SSW,207,0.0,0.0,59,0.00,OVC,FEW,0.00,WeatherDisplay:10.37,2013-01-06 00:24:00,
2013-01-05 18:29:00,43.7,30.3,30.30,South,190,2.3,2.3,59,0.00,OVC,FEW,0.00,WeatherDisplay:10.37,2013-01-06 00:29:00,
2013-01-05 18:34:00,43.7,30.7,30.30,South,173,0.0,0.0,60,0.00,OVC,FEW,0.00,WeatherDisplay:10.37,2013-01-06 00:34:00,
2013-01-05 18:39:00,43.7,30.7,30.30,SSW,213,2.3,2.3,60,0.00,OVC,FEW,0.00,WeatherDisplay:10.37,2013-01-06 00:39:00,
2013-01-05 18:44:00,43.6,30.2,30.30,SW,221,1.1,1.1,59,0.00,OVC,FEW,0.00,WeatherDisplay:10.37,2013-01-06 00:44:00,
2013-01-05 18:49:00,43.6,29.8,30.30,SSW,197,1.1,0.0,58,0.00,OVC,FEW,0.00,WeatherDisplay:10.37,2013-01-06 00:49:00,
2013-01-05 18:54:00,43.5,30.1,30.30,West,274,1.1,0.0,59,0.00,OVC,FEW,0.00,WeatherDisplay:10.37,2013-01-06 00:54:00,
2013-01-05 18:59:00,43.4,30.0,30.30,SSW,210,2.1,2.1,59,0.00,OVC,FEW,0.00,WeatherDisplay:10.37,2013-01-06 00:59:00,
2013-01-05 19:04:00,43.4,30.0,30.30,SSW,211,0.0,0.0,59,0.00,OVC,FEW,0.00,WeatherDisplay:10.37,2013-01-06 01:04:00,
2013-01-05 19:09:00,43.3,29.9,30.30,SSW,211,1.1,1.1,59,0.00,OVC,FEW,0.00,WeatherDisplay:10.37,2013-01-06 01:09:00,
2013-01-05 19:14:00,43.2,29.8,30.30,SSW,211,1.1,1.1,59,0.00,OVC,FEW,0.00,WeatherDisplay:10.37,2013-01-06 01:14:00,
2013-01-05 19:19:00,43.2,29.8,30.31,SW,219,0.0,0.0,59,0.00,OVC,FEW,0.00,WeatherDisplay:10.37,2013-01-06 01:19:00,
2013-01-05 19:24:00,43.1,29.7,30.31,SW,219,0.0,0.0,59,0.00,OVC,FEW,0.00,WeatherDisplay:10.37,2013-01-06 01:24:00,
2013-01-05 19:29:00,43.0,30.1,30.30,SW,219,0.0,0.0,60,0.00,OVC,FEW,0.00,WeatherDisplay:10.37,2013-01-06 01:29:00,
2013-01-05 19:34:00,42.9,30.0,30.30,SW,217,0.0,0.0,60,0.00,OVC,FEW,0.00,WeatherDisplay:10.37,2013-01-06 01:34:00,
2013-01-05 19:39:00,42.9,30.4,30.30,SW,217,0.0,0.0,61,0.00,OVC,FEW,0.00,WeatherDisplay:10.37,2013-01-06 01:39:00,
2013-01-05 19:44:00,42.8,30.3,30.30,SW,217,1.1,0.0,61,0.00,OVC,FEW,0.00,WeatherDisplay:10.37,2013-01-06 01:44:00,
2013-01-05 19:49:00,42.8,30.3,30.29,SW,217,0.0,0.0,61,0.00,OVC,FEW,0.00,WeatherDisplay:10.37,2013-01-06 01:49:00,
2013-01-05 19:54:00,42.8,29.9,30.29,SW,217,0.0,0.1,60,0.00,OVC,FEW,0.00,WeatherDisplay:10.37,2013-01-06 01:54:00,
2013-01-05 19:59:00,42.8,30.3,30.29,SSW,205,1.1,1.1,61,0.00,OVC,FEW,0.00,WeatherDisplay:10.37,2013-01-06 01:59:00,
2013-01-05 20:04:00,42.8,30.3,30.29,SW,222,1.1,1.1,61,0.00,OVC,FEW,0.00,WeatherDisplay:10.37,2013-01-06 02:04:00,
2013-01-05 20:09:00,42.7,30.2,30.28,SW,221,0.0,0.8,61,0.00,OVC,FEW,0.00,WeatherDisplay:10.37,2013-01-06 02:09:00,
2013-01-05 20:14:00,42.7,30.2,30.28,SSW,198,0.0,0.1,61,0.00,OVC,FEW,0.00,WeatherDisplay:10.37,2013-01-06 02:14:00,
2013-01-05 20:19:00,42.6,30.1,30.28,SSW,202,0.0,0.1,61,0.00,OVC,FEW,0.00,WeatherDisplay:10.37,2013-01-06 02:19:00,
2013-01-05 20:24:00,42.5,30.0,30.28,South,187,2.3,0.0,61,0.00,OVC,FEW,0.00,WeatherDisplay:10.37,2013-01-06 02:24:00,
2013-01-05 20:29:00,42.5,30.0,30.28,South,187,2.3,2.3,61,0.00,OVC,FEW,0.00,WeatherDisplay:10.37,2013-01-06 02:29:00,
2013-01-05 20:34:00,42.4,29.9,30.28,South,188,2.3,2.3,61,0.00,OVC,FEW,0.00,WeatherDisplay:10.37,2013-01-06 02:34:00,
2013-01-05 20:39:00,42.3,29.8,30.28,South,188,2.3,2.3,61,0.00,OVC,FEW,0.00,WeatherDisplay:10.37,2013-01-06 02:39:00,
2013-01-05 20:44:00,42.0,29.9,30.28,SW,220,1.1,1.1,62,0.00,OVC,FEW,0.00,WeatherDisplay:10.37,2013-01-06 02:44:00,
2013-01-05 20:49:00,41.9,29.8,30.28,SSW,192,1.1,1.1,62,0.00,OVC,FEW,0.00,WeatherDisplay:10.37,2013-01-06 02:49:00,
2013-01-05 20:54:00,41.8,30.1,30.28,SSW,209,0.0,0.1,63,0.00,OVC,FEW,0.00,WeatherDisplay:10.37,2013-01-06 02:54:00,
2013-01-05 21:00:00,41.5,30.2,30.28,WSW,242,1.1,0.0,64,0.00,OVC,FEW,0.00,WeatherDisplay:10.37,2013-01-06 03:00:00,
2013-01-05 21:05:00,41.4,30.1,30.28,West,271,1.1,0.0,64,0.00,OVC,FEW,0.00,WeatherDisplay:10.37,2013-01-06 03:05:00,
2013-01-05 21:10:00,41.3,30.0,30.28,West,271,1.1,0.0,64,0.00,OVC,FEW,0.00,WeatherDisplay:10.37,2013-01-06 03:10:00,
2013-01-05 21:15:00,41.2,29.9,30.27,SSW,200,0.0,0.0,64,0.00,OVC,FEW,0.00,WeatherDisplay:10.37,2013-01-06 03:15:00,
2013-01-05 21:20:00,41.2,30.3,30.27,SSE,163,3.5,3.5,65,0.00,OVC,FEW,0.00,WeatherDisplay:10.37,2013-01-06 03:20:00,
2013-01-05 21:25:00,40.9,30.0,30.27,South,190,1.1,1.1,65,0.00,OVC,FEW,0.00,WeatherDisplay:10.37,2013-01-06 03:25:00,
2013-01-05 21:30:00,40.8,29.9,30.26,SW,216,2.3,2.3,65,0.00,OVC,FEW,0.00,WeatherDisplay:10.37,2013-01-06 03:30:00,
2013-01-05 21:35:00,40.7,29.8,30.27,South,185,1.1,1.1,65,0.00,OVC,FEW,0.00,WeatherDisplay:10.37,2013-01-06 03:35:00,
2013-01-05 21:40:00,40.4,29.9,30.27,SW,219,1.1,1.1,66,0.00,OVC,FEW,0.00,WeatherDisplay:10.37,2013-01-06 03:40:00,
2013-01-05 21:45:00,40.1,29.6,30.27,SW,219,0.0,0.0,66,0.00,OVC,FEW,0.00,WeatherDisplay:10.37,2013-01-06 03:45:00,
2013-01-05 21:50:00,39.7,29.6,30.28,SW,219,1.1,1.1,67,0.00,OVC,FEW,0.00,WeatherDisplay:10.37,2013-01-06 03:50:00,
2013-01-05 21:55:00,39.3,29.6,30.28,SW,219,0.0,0.0,68,0.00,OVC,FEW,0.00,WeatherDisplay:10.37,2013-01-06 03:55:00,
2013-01-05 22:00:00,38.8,29.5,30.27,SW,219,0.0,0.0,69,0.00,OVC,FEW,0.00,WeatherDisplay:10.37,2013-01-06 04:00:00,
2013-01-05 22:05:00,38.5,29.6,30.28,SW,219,0.0,0.0,70,0.00,OVC,FEW,0.00,WeatherDisplay:10.37,2013-01-06 04:05:00,
2013-01-05 22:10:00,38.3,29.7,30.28,SW,219,0.0,0.0,71,0.00,OVC,FEW,0.00,WeatherDisplay:10.37,2013-01-06 04:10:00,
2013-01-05 22:15:00,38.0,29.4,30.28,SW,219,0.0,0.0,71,0.00,OVC,FEW,0.00,WeatherDisplay:10.37,2013-01-06 04:15:00,
2013-01-05 22:20:00,37.9,29.7,30.28,SW,219,0.0,0.0,72,0.00,SCT,FEW,0.00,WeatherDisplay:10.37,2013-01-06 04:20:00,
2013-01-05 22:25:00,37.9,29.7,30.28,SW,219,0.0,0.0,72,0.00,SCT,FEW,0.00,WeatherDisplay:10.37,2013-01-06 04:25:00,
2013-01-05 22:30:00,37.8,29.9,30.28,SW,219,0.0,0.0,73,0.00,SCT,FEW,0.00,WeatherDisplay:10.37,2013-01-06 04:30:00,
2013-01-05 22:35:00,37.8,29.9,30.28,SW,219,0.0,0.0,73,0.00,SCT,FEW,0.00,WeatherDisplay:10.37,2013-01-06 04:35:00,
2013-01-05 22:40:00,37.7,29.8,30.28,SW,219,0.0,0.0,73,0.00,SCT,FEW,0.00,WeatherDisplay:10.37,2013-01-06 04:40:00,
2013-01-05 22:45:00,37.9,30.0,30.28,SW,219,1.1,1.1,73,0.00,SCT,FEW,0.00,WeatherDisplay:10.37,2013-01-06 04:45:00,
2013-01-05 22:50:00,38.0,30.1,30.28,SW,219,0.0,0.0,73,0.00,SCT,FEW,0.00,WeatherDisplay:10.37,2013-01-06 04:50:00,
2013-01-05 22:55:00,37.7,29.8,30.28,SW,219,0.0,0.0,73,0.00,SCT,FEW,0.00,WeatherDisplay:10.37,2013-01-06 04:55:00,
2013-01-05 23:01:00,37.5,30.0,30.28,SW,219,0.0,0.0,74,0.00,BKN,FEW,0.00,WeatherDisplay:10.37,2013-01-06 05:01:00,
2013-01-05 23:02:00,37.4,29.9,30.28,SW,219,0.0,0.0,74,0.00,BKN,FEW,0.00,WeatherDisplay:10.37,2013-01-06 05:02:00,
2013-01-05 23:03:00,37.4,30.2,30.28,SW,219,0.0,0.0,75,0.00,BKN,FEW,0.00,WeatherDisplay:10.37,2013-01-06 05:03:00,
2013-01-05 23:05:00,37.3,29.8,30.28,SW,219,0.0,0.0,74,0.00,BKN,FEW,0.00,WeatherDisplay:10.37,2013-01-06 05:05:00,
2013-01-05 23:10:00,37.2,29.7,30.28,SW,219,0.0,0.0,74,0.00,BKN,FEW,0.00,WeatherDisplay:10.37,2013-01-06 05:10:00,
2013-01-05 23:15:00,37.1,30.9,30.28,SW,219,0.0,0.0,78,0.00,BKN,FEW,0.00,WeatherDisplay:10.37,2013-01-06 05:15:00,
2013-01-05 23:20:00,36.9,30.7,30.27,SW,219,0.0,0.0,78,0.00,BKN,FEW,0.00,WeatherDisplay:10.37,2013-01-06 05:20:00,
2013-01-05 23:25:00,36.8,30.6,30.27,SW,219,0.0,0.0,78,0.00,BKN,FEW,0.00,WeatherDisplay:10.37,2013-01-06 05:25:00,
2013-01-05 23:30:00,36.9,30.7,30.27,SW,219,1.1,1.1,78,0.00,BKN,FEW,0.00,WeatherDisplay:10.37,2013-01-06 05:30:00,
2013-01-05 23:35:00,37.0,30.5,30.27,SW,219,1.1,1.1,77,0.00,BKN,FEW,0.00,WeatherDisplay:10.37,2013-01-06 05:35:00,
2013-01-05 23:40:00,37.1,30.6,30.27,South,181,2.3,2.3,77,0.00,BKN,FEW,0.00,WeatherDisplay:10.37,2013-01-06 05:40:00,
2013-01-05 23:45:00,37.5,30.9,30.26,SW,229,6.9,6.9,77,0.00,BKN,FEW,0.00,WeatherDisplay:10.37,2013-01-06 05:45:00,
2013-01-05 23:50:00,38.2,31.3,30.26,WSW,240,2.3,2.3,76,0.00,BKN,FEW,0.00,WeatherDisplay:10.37,2013-01-06 05:50:00,
2013-01-05 23:55:00,38.5,31.3,30.26,South,171,3.5,3.5,75,0.00,BKN,FEW,0.00,WeatherDisplay:10.37,2013-01-06 05:55:00,